Dewpoint
65 68 71 73 73 73 72 72 73 73 73 72 73 72 72 72 72 72 71 72 71 70 71 71 70 70 70 69 68 69 70 70 70 71 71 70 69 69 69 69 67 67 68 68 68 67 66 66 66 67 69 69 69 70 70 70 71 70 70 70 69 68 68 68 68 67 67 67 67 67 67 67 66 65 64 65 65 66 68 66 66 65 66 65 65
63 69 71 73 73 73 73 73 73 72 72 73 73 72 72 72 72 72 71 72 71 70 71 70 70 70 69 69 68 69 69 69 70 70 70 70 70 69 69 69 69 69 69 68 67 68 67 67 68 69 69 69 70 70 71 71 70 70 70 70 69 69 69 68 67 67 66 66 65 65 65 65 65 64 65 64 65 66 67 66 66 65 65 66 65
66 69 71 72 73 73 73 72 73 72 72 72 72 72 72 72 72 72 71 72 72 70 71 71 70 70 69 68 68 68 68 69 69 69 70 70 70 70 69 69 69 69 69 69 69 69 68 68 69 70 70 71 71 71 71 70 69 71 69 69 69 69 69 69 68 68 67 67 66 66 66 65 65 64 65 64 65 65 67 65 65 66 64 65 65
69 69 71 72 73 73 73 72 72 72 72 72 72 72 73 72 72 72 71 72 72 71 71 71 71 70 69 69 69 68 68 68 69 69 69 70 70 70 69 69 69 69 69 69 69 69 69 71 71 71 71 71 71 71 70 70 70 70 70 70 70 70 70 69 69 69 69 68 68 67 66 65 65 66 66 65 64 65 67 65 65 65 65 64 65
69 69 71 72 72 72 73 73 73 72 73 73 72 72 73 72 72 72 72 72 72 71 71 71 71 70 69 70 69 68 68 67 67 68 68 69 69 70 70 69 69 69 68 69 69 70 70 70 70 71 71 70 70 71 71 70 70 70 70 70 70 70 70 70 70 70 69 69 68 65 63 64 65 65 64 65 66 66 66 65 65 65 64 64 64
67 69 71 71 71 72 73 72 72 72 72 72 72 72 72 72 72 71 72 72 73 72 71 71 71 70 70 70 70 68 67 67 67 67 67 69 69 69 69 69 69 68 68 69 69 69 70 70 70 70 70 70 70 70 71 70 70 70 70 70 70 70 70 70 69 69 70 70 69 63 62 63 64 64 64 65 66 66 66 65 66 65 65 64 64
67 69 69 70 71 72 72 72 73 72 72 72 71 72 72 72 71 71 72 72 72 72 71 71 71 71 70 70 70 69 68 67 67 67 67 68 69 69 69 69 69 69 69 69 69 69 69 69 70 70 70 70 70 70 70 70 70 70 70 70 69 69 69 69 68 69 69 69 67 63 63 64 64 65 64 65 66 65 65 64 64 64 65 65 64
66 68 68 69 70 72 72 72 72 72 72 71 72 72 72 72 72 72 72 72 72 72 71 71 71 71 70 70 70 70 69 67 67 67 67 66 69 70 69 69 69 69 68 68 69 69 69 69 70 69 69 70 70 70 70 70 70 70 69 69 69 69 68 69 69 69 70 67 62 63 64 64 65 66 65 65 64 64 64 63 63 64 64 64 64
63 64 66 69 70 72 72 72 72 72 72 72 72 72 72 72 72 72 72 73 72 72 71 71 71 70 70 70 70 70 69 67 67 67 67 66 68 70 69 69 69 69 68 68 68 69 69 68 68 69 69 69 70 70 69 70 70 70 69 69 69 68 69 68 69 70 68 64 63 64 64 64 65 66 66 65 64 64 65 64 65 64 64 64 64
63 63 64 66 70 71 71 71 72 72 72 72 71 72 72 72 72 72 72 72 72 72 72 71 71 70 70 70 70 70 69 68 67 67 67 67 67 67 68 69 69 69 68 68 67 68 68 68 68 68 69 69 69 69 70 70 70 70 70 69 68 68 68 69 69 68 66 63 64 65 67 67 66 66 66 65 65 65 66 67 67 66 65 64 63
62 62 63 68 71 71 71 71 71 72 71 71 70 71 72 72 72 72 72 72 72 72 72 71 71 71 71 71 70 70 69 68 68 67 67 67 67 66 67 68 68 69 68 68 68 68 68 68 68 68 68 69 69 69 69 70 70 70 70 69 69 69 69 69 69 67 65 63 63 64 67 67 65 65 66 66 66 65 66 66 66 65 63 63 63
61 62 63 70 71 70 70 70 71 71 71 71 70 71 72 72 72 72 72 72 71 72 72 72 71 71 71 71 70 70 70 69 68 67 67 66 66 66 65 67 67 68 68 68 68 68 68 68 68 68 68 69 69 69 70 70 69 70 70 70 69 69 69 69 67 67 68 64 66 65 65 64 65 65 64 64 64 64 64 63 63 64 64 62 63
61 61 65 70 70 70 70 70 70 71 71 71 71 72 72 72 72 72 72 71 70 70 72 72 71 71 71 71 70 70 70 69 67 67 67 66 66 66 66 65 66 68 69 69 69 68 68 68 67 68 68 68 69 69 69 69 69 70 69 69 69 69 69 68 67 69 68 67 66 66 66 65 65 66 65 64 64 63 63 63 63 64 63 62 63
61 63 69 69 69 71 69 69 70 70 70 70 70 71 72 72 72 72 72 72 71 71 72 72 72 71 71 71 71 71 70 69 67 67 67 67 66 65 66 66 66 67 69 69 68 68 68 68 67 68 68 68 69 69 69 69 69 69 69 69 69 69 67 67 68 67 68 67 67 67 66 66 65 66 66 66 66 66 66 64 64 64 64 63 63
62 67 68 68 69 69 70 69 69 69 70 69 70 70 72 72 72 72 72 72 72 71 71 71 72 72 72 71 71 71 70 69 68 68 68 67 67 65 65 65 65 66 68 68 68 67 67 67 67 67 68 68 68 68 69 69 69 69 69 69 68 68 66 67 67 69 68 67 68 68 68 65 67 66 66 66 67 66 65 64 64 63 63 63 62
63 68 68 68 68 69 69 70 69 69 69 69 69 70 72 72 72 72 72 72 71 70 71 70 70 72 72 71 71 70 70 69 69 68 67 67 67 67 66 64 65 65 67 68 68 68 67 67 67 67 67 68 68 68 69 69 69 68 68 67 67 66 66 65 67 68 68 67 68 68 68 67 67 67 67 67 67 66 64 65 65 64 63 63 63
65 65 67 68 68 68 68 68 68 68 68 68 69 69 70 71 71 71 71 71 71 71 70 70 69 71 71 71 71 70 70 69 68 68 67 67 67 67 67 65 64 65 65 68 68 67 67 67 66 66 67 67 67 68 68 68 67 67 67 66 66 65 65 64 66 68 67 67 68 69 68 67 67 67 67 67 67 66 65 65 65 65 63 63 63
66 64 66 67 67 67 68 68 69 68 68 68 67 68 69 70 70 71 71 71 71 70 70 70 70 71 71 70 70 70 70 69 68 67 67 66 66 66 67 66 64 64 65 68 68 67 67 67 67 67 67 66 66 66 66 66 66 66 65 65 65 65 64 64 66 67 68 68 68 68 68 68 68 67 67 67 68 67 67 67 66 65 65 64 63
65 63 65 66 66 66 67 68 69 68 68 67 67 67 67 69 69 70 70 70 70 70 69 69 70 69 70 70 70 70 69 68 67 67 66 66 66 66 66 66 65 64 64 65 66 66 67 67 67 66 66 66 67 66 65 64 64 63 63 62 62 63 63 64 66 67 67 67 68 68 67 68 68 67 67 68 67 68 68 68 67 67 66 66 65
64 64 66 66 66 66 66 67 69 68 68 67 66 67 66 67 68 69 69 69 69 69 68 68 68 67 67 68 68 69 69 68 67 66 66 65 66 64 65 65 65 65 64 64 65 66 66 66 66 66 66 66 67 66 65 64 63 63 62 61 61 61 62 65 66 65 65 66 67 68 69 68 68 68 67 67 68 68 68 68 67 67 67 67 67
66 63 66 66 67 66 66 67 67 68 68 68 67 67 66 66 67 68 68 68 68 68 67 67 66 66 66 66 68 69 69 68 66 65 65 64 64 64 64 64 64 65 65 66 66 65 64 64 64 65 66 66 66 65 64 64 63 62 61 61 61 60 61 64 66 65 65 65 67 68 69 69 68 67 67 68 68 68 68 68 68 68 67 67 67
63 63 66 67 67 67 67 66 67 66 67 68 67 67 68 67 69 69 69 68 67 67 67 68 69 69 65 66 68 69 69 68 66 67 64 64 63 63 63 63 64 64 65 65 66 64 64 63 63 64 66 66 65 63 63 64 63 62 60 59 59 61 63 64 63 63 63 64 65 68 69 68 68 68 68 68 68 68 68 68 67 68 68 67 67
61 63 65 66 68 66 68 67 67 66 67 66 65 64 67 67 67 69 70 68 69 69 69 69 69 69 68 67 68 68 69 69 68 66 65 62 64 62 62 63 63 64 65 65 65 64 63 62 62 63 65 65 63 62 62 62 60 62 60 58 59 60 62 63 62 62 62 62 66 67 67 66 66 66 66 67 68 67 67 67 67 67 68 67 67
60 61 64 66 67 67 68 67 66 66 65 62 64 63 66 66 65 67 69 69 69 69 69 69 69 69 69 68 68 69 69 68 69 68 67 65 63 62 62 62 63 64 64 64 65 64 64 64 64 66 66 64 62 61 61 63 62 59 59 60 59 59 60 61 61 61 61 62 64 66 66 65 65 65 65 66 67 67 66 66 67 66 67 67 67
60 60 64 65 66 67 67 68 67 63 61 62 64 63 65 65 63 64 67 69 69 69 69 69 69 69 69 69 68 68 68 68 68 68 68 66 63 63 63 63 63 63 63 62 63 64 63 62 63 64 62 62 60 59 59 59 59 60 59 58 58 59 59 59 61 61 61 62 63 66 67 66 64 64 64 65 65 66 66 67 66 66 67 67 67
63 62 61 65 66 67 67 67 67 63 62 62 63 63 64 63 63 65 67 68 68 68 69 68 68 69 69 69 68 67 67 68 67 67 67 68 64 64 63 63 63 63 63 62 62 63 63 63 62 62 62 60 59 60 59 59 59 59 58 59 59 59 58 58 59 60 60 61 64 63 65 65 64 64 64 64 64 64 65 66 67 66 66 66 67
63 63 63 64 65 67 68 67 68 66 63 63 63 63 63 62 65 67 67 68 68 68 69 68 68 68 68 68 69 67 66 67 67 68 66 68 66 65 64 63 63 63 62 63 62 63 62 62 62 62 62 61 60 60 60 59 59 59 59 59 59 59 58 58 58 58 58 60 62 62 63 63 64 63 64 64 64 64 64 64 65 66 67 66 66
64 64 64 63 64 66 67 67 67 68 67 66 63 63 63 63 65 66 67 67 68 67 68 68 67 67 67 67 67 68 67 67 66 67 66 67 66 66 65 64 64 63 62 61 62 63 61 62 62 61 61 61 61 60 60 60 59 59 59 59 59 59 59 59 58 57 56 57 60 61 61 63 63 64 64 64 64 64 64 64 64 65 65 66 66
63 64 64 63 64 66 68 67 66 67 68 67 65 63 63 63 63 65 66 66 67 68 67 68 68 68 67 67 67 67 67 67 67 67 67 67 67 67 67 66 64 63 61 59 61 61 61 61 60 61 60 60 61 61 60 60 59 59 59 59 59 60 59 60 60 60 58 56 56 59 60 61 63 65 65 64 63 64 64 64 64 64 64 64 65
63 63 64 64 65 65 67 67 67 67 67 67 66 65 64 63 63 63 63 65 66 67 67 67 68 68 68 68 68 68 68 67 67 67 67 67 67 67 67 67 67 65 61 60 60 59 59 60 60 60 60 60 60 61 61 60 60 60 60 59 60 60 60 60 61 61 61 59 58 57 59 60 61 62 63 64 64 63 63 64 64 63 63 63 63
63 63 64 65 64 65 66 67 66 65 66 67 66 66 66 65 64 64 64 64 65 65 67 65 66 66 67 67 68 67 67 67 66 66 66 67 67 67 67 67 67 67 65 62 62 61 60 59 59 60 60 60 60 61 61 60 61 61 61 61 60 60 60 60 61 61 61 61 61 60 60 59 60 61 63 64 63 63 64 64 64 64 63 63 62
63 63 64 64 64 64 65 66 67 67 66 65 66 66 66 66 66 65 64 64 65 65 64 64 64 65 66 67 68 68 66 66 65 66 66 66 67 66 66 66 66 67 66 63 63 62 61 61 61 61 60 60 60 61 61 61 61 62 62 62 62 61 61 61 61 61 61 61 61 61 61 59 59 59 61 64 63 64 64 65 65 64 64 65 65
63 63 63 64 64 64 65 66 67 67 66 66 66 67 66 67 66 65 65 65 65 65 64 64 63 63 64 64 65 65 65 64 64 64 64 66 66 66 65 65 65 65 64 64 63 63 61 61 60 60 60 60 60 61 62 61 62 62 62 63 62 62 61 61 61 61 61 61 61 61 61 61 59 58 59 60 61 63 65 64 64 65 65 65 65
62 63 63 63 63 63 64 64 64 65 66 66 66 65 66 65 66 66 66 65 64 64 64 64 63 62 63 64 64 64 64 64 64 64 63 65 65 64 64 64 65 64 64 64 64 63 62 62 60 60 60 59 59 59 60 61 62 62 62 62 63 63 62 62 61 61 62 61 61 61 61 61 61 60 59 59 59 61 63 65 65 66 66 66 66
61 61 63 64 63 63 64 63 64 65 65 65 65 65 65 65 66 66 66 66 64 63 63 63 63 63 62 63 64 64 64 64 64 64 63 62 63 63 63 64 64 64 64 64 64 64 63 62 61 60 59 59 59 60 60 61 61 61 61 62 62 62 62 62 62 62 62 62 62 62 61 61 61 62 61 60 59 59 61 63 65 66 66 67 67
59 60 60 63 63 63 64 64 64 64 64 65 65 65 65 66 66 65 66 66 65 63 63 62 62 62 61 61 63 63 63 63 63 63 63 63 62 62 63 63 64 64 64 64 64 64 64 63 63 61 60 59 59 59 60 59 59 60 61 61 61 61 62 62 62 62 62 63 62 62 62 62 62 61 61 62 61 60 60 61 64 66 66 66 67
54 56 58 60 62 63 64 64 64 63 63 64 64 64 65 65 65 65 66 66 66 64 63 63 62 62 61 60 63 63 63 63 63 63 62 62 62 62 61 63 64 64 64 64 63 64 64 64 63 62 61 59 58 59 59 60 60 60 60 60 61 61 61 62 62 62 63 62 62 62 62 62 62 60 61 61 62 62 60 59 61 63 64 64 64
52 51 55 58 59 61 62 63 64 64 64 64 64 64 64 65 65 65 65 65 65 65 64 63 62 62 61 61 62 62 62 63 63 63 62 62 62 62 63 64 63 64 64 64 63 63 63 63 62 61 61 59 57 58 59 59 60 60 59 60 60 61 61 61 62 60 62 62 62 62 62 61 62 62 62 62 62 62 61 60 60 60 61 60 61
50 51 53 54 57 60 61 62 63 63 63 64 64 64 64 63 64 64 65 65 65 65 65 63 63 62 61 61 62 62 62 62 63 63 63 63 63 64 64 64 64 63 64 63 63 63 62 62 61 61 60 58 57 58 58 59 59 59 60 60 61 62 62 62 62 62 62 62 62 61 63 62 61 62 62 62 62 62 62 61 60 60 60 59 59
51 51 50 52 55 58 61 61 62 63 62 62 63 64 63 63 63 63 63 64 64 64 63 64 61 63 61 62 62 62 62 62 63 63 63 63 62 64 65 65 64 64 63 63 63 63 62 62 61 61 58 57 58 57 59 59 59 60 60 61 62 62 62 61 61 62 61 62 61 61 61 62 62 62 62 63 63 63 62 62 60 61 62 60 58
51 51 50 50 53 56 59 60 61 62 62 62 63 63 62 62 62 62 62 63 63 63 64 63 63 62 63 62 62 62 61 62 63 63 63 62 62 62 64 65 64 64 63 63 64 64 63 62 62 60 58 57 57 58 59 59 59 58 59 59 60 61 61 61 61 61 61 61 61 61 61 61 62 62 62 63 62 62 61 61 61 60 60 60 60
45 51 49 49 50 53 57 59 60 61 62 62 62 61 61 62 61 61 61 62 62 62 63 60 58 58 58 59 61 61 62 62 63 63 63 64 63 63 62 63 63 63 63 63 63 62 63 62 61 59 58 58 58 59 59 59 58 57 56 56 58 60 60 60 60 60 60 60 61 61 62 61 61 61 62 62 63 63 62 62 60 61 60 60 60
38 46 50 49 48 49 52 56 59 60 61 62 62 61 61 61 61 59 61 54 54 54 55 56 56 56 55 55 57 58 58 58 59 60 61 61 61 62 62 62 62 62 61 62 62 63 62 60 59 58 57 58 58 59 60 60 58 58 58 55 54 54 56 59 60 60 60 60 61 61 61 61 61 62 62 62 62 63 62 62 61 61 60 60 60
40 39 48 49 49 48 49 51 54 58 60 61 61 61 60 58 57 56 55 55 53 53 54 55 55 55 54 54 54 55 55 55 56 56 57 57 58 59 60 62 62 61 60 60 60 59 59 58 58 57 57 56 58 58 59 61 60 57 55 56 54 53 53 54 58 59 60 60 60 60 60 61 61 62 61 60 59 60 61 61 61 60 61 61 61
41 39 40 48 50 48 48 49 50 54 58 59 60 59 56 55 55 54 54 53 54 53 53 52 52 52 53 53 52 54 54 54 54 54 55 55 56 56 57 57 57 58 59 59 59 58 59 59 59 58 58 57 57 58 59 60 61 61 58 55 54 54 53 52 53 56 59 59 59 59 60 61 60 60 59 59 59 59 59 59 60 60 60 61 60
40 41 42 42 48 49 48 49 50 51 56 58 60 58 57 56 55 55 54 53 52 52 53 53 52 52 51 52 52 53 53 53 54 54 54 54 54 55 55 55 54 54 55 54 55 56 57 57 58 60 59 59 60 60 59 60 61 61 61 60 57 54 54 54 53 50 57 58 58 59 58 60 60 58 58 58 59 59 59 59 59 59 59 59 59
39 42 43 43 43 50 50 50 50 51 54 56 59 58 58 57 57 57 56 55 54 52 52 52 52 51 51 51 52 52 52 52 52 53 53 54 54 54 54 54 54 54 53 52 53 55 56 56 57 58 58 58 59 57 57 57 59 61 61 61 61 60 59 57 54 53 52 54 56 57 57 59 58 58 58 59 59 59 59 58 59 59 59 59 59
33 42 44 46 45 46 50 50 50 51 53 55 58 58 58 57 57 57 56 55 54 52 51 51 51 50 51 50 50 51 51 52 52 51 51 52 53 54 53 53 53 53 53 54 54 55 55 56 57 58 58 58 57 56 56 56 54 54 57 57 58 60 61 60 59 56 54 52 53 56 58 59 59 60 60 59 58 58 58 58 58 58 58 57 57
35 39 43 46 47 47 47 49 50 51 52 55 57 57 57 58 57 57 56 55 53 50 50 49 49 50 50 50 49 50 50 50 50 50 50 50 51 51 52 52 52 53 52 53 53 53 53 54 54 54 55 56 56 56 55 55 53 53 54 54 56 57 58 60 59 58 55 54 54 54 55 57 57 58 59 59 59 58 58 58 58 57 56 56 56
40 44 47 46 46 45 45 46 47 49 50 53 55 56 57 56 57 57 56 52 50 49 48 48 49 49 48 48 48 49 49 49 49 49 49 50 50 49 49 50 51 51 51 52 51 52 52 53 53 53 53 53 54 55 56 55 54 55 54 54 53 54 55 56 57 57 57 57 54 54 55 55 54 56 57 57 57 57 57 57 56 56 56 55 55
43 43 44 44 45 45 44 44 45 46 48 51 53 54 56 56 56 56 56 50 49 48 47 47 47 47 47 47 47 48 48 48 48 48 48 48 48 49 49 49 48 49 49 50 50 51 52 53 53 53 53 53 53 55 55 55 54 54 54 54 53 53 53 52 53 54 54 53 54 53 54 54 54 53 54 55 56 56 56 56 55 54 54 53 53